Location: Mesa Vista Observatory
(35.5777°N, 105.6987°W)
Time: 23:55:20
(UTC-06:00)

Altair - All Passes

Search period start: 24 September 2020 00:00
Search period end: 04 October 2020 00:00
Orbit: 1501 x 1682 km, 47.2° (Epoch: 24 September)

Date Brightness Start Highest point End Pass type
(mag) Time Alt. Az. Time Alt. Az. Time Alt. Az.
24 Sep - 00:42:41 10° W 00:46:10 12° WSW 00:49:38 10° SW visible
24 Sep - 11:49:29 10° SE 11:51:35 11° ESE 11:53:42 10° ESE daylight
24 Sep - 13:45:16 10° SSW 13:54:43 53° SE 14:04:25 10° ENE daylight
24 Sep - 15:49:36 10° WSW 15:59:33 64° NNW 16:09:40 10° NE daylight
24 Sep - 17:56:34 10° WNW 18:06:05 43° N 18:15:35 10° ENE daylight
24 Sep - 20:02:45 10° NW 20:12:46 58° NNE 20:22:33 10° E visible
24 Sep - 22:07:58 10° WNW 22:17:51 61° SW 22:27:24 10° SE visible
25 Sep - 00:16:24 10° W 00:21:08 15° WSW 00:25:48 10° SSW visible
25 Sep - 13:20:18 10° SSW 13:29:35 48° SE 13:39:06 10° ENE daylight
25 Sep - 15:24:19 10° WSW 15:34:16 67° NNW 15:44:25 10° NE daylight
25 Sep - 17:31:12 10° WNW 17:40:44 43° N 17:50:14 10° ENE daylight
25 Sep - 19:37:29 10° NW 19:47:27 56° NNE 19:57:14 10° E visible
25 Sep - 21:42:41 10° WNW 21:52:41 67° SW 22:02:22 10° SE visible
25 Sep - 23:50:27 10° W 23:56:05 17° WSW 00:01:39 10° SSW visible
26 Sep - 12:55:22 10° SSW 13:04:26 44° SE 13:13:47 10° ENE daylight
26 Sep - 14:59:02 10° WSW 15:09:00 71° NNW 15:19:11 10° NE daylight
26 Sep - 17:05:50 10° WNW 17:15:21 43° N 17:24:54 10° ENE daylight
26 Sep - 19:12:13 10° WNW 19:22:09 53° NNE 19:31:53 10° E visible
26 Sep - 21:17:26 10° WNW 21:27:31 72° SW 21:37:17 10° SE visible
26 Sep - 23:24:39 10° W 23:31:02 19° WSW 23:37:19 10° SSW visible
27 Sep - 12:30:29 10° SSW 12:39:20 40° SE 12:48:26 10° ENE daylight
27 Sep - 14:33:47 10° WSW 14:43:44 75° NNW 14:53:56 10° NE daylight
27 Sep - 16:40:27 10° WNW 16:49:59 44° N 16:59:34 10° ENE daylight
27 Sep - 18:46:58 10° WNW 18:56:49 51° NNE 19:06:32 10° E daylight
27 Sep - 20:52:10 10° WNW 21:02:20 77° SW 21:12:11 10° SE visible
27 Sep - 22:58:59 10° W 23:05:58 22° SW 23:12:50 10° S visible
28 Sep - 12:05:38 10° SSW 12:14:14 37° SE 12:23:04 10° ENE daylight
28 Sep - 14:08:34 10° WSW 14:18:29 79° NNW 14:28:42 10° NE daylight
28 Sep - 16:15:05 10° W 16:24:37 45° N 16:34:15 10° ENE daylight
28 Sep - 18:21:41 10° WNW 18:31:29 50° NNE 18:41:12 10° E daylight
28 Sep - 20:26:56 10° WNW 20:37:08 82° SW 20:47:03 10° SE visible
28 Sep - 22:33:24 10° WNW 22:40:54 24° SW 22:48:16 10° S visible
29 Sep - 11:40:50 10° S 11:49:08 33° SE 11:57:40 10° ENE daylight
29 Sep - 13:43:21 10° WSW 13:53:15 83° NW 14:03:28 10° NE daylight
29 Sep - 15:49:43 10° W 15:59:16 46° N 16:08:56 10° ENE daylight
29 Sep - 17:56:24 10° WNW 18:06:09 48° NNE 18:15:49 10° E daylight
29 Sep - 20:01:42 10° NW 20:11:55 87° SW 20:21:54 10° SE visible
29 Sep - 22:07:53 10° WNW 22:15:49 27° SW 22:23:37 10° S visible
30 Sep - 11:16:04 10° S 11:24:03 30° SE 11:32:14 10° ENE daylight
30 Sep - 13:18:10 10° SW 13:28:02 88° NW 13:38:14 10° NE daylight
30 Sep - 15:24:21 10° W 15:33:54 47° NNW 15:43:37 10° ENE daylight
30 Sep - 17:31:06 10° WNW 17:40:48 47° NNE 17:50:27 10° E daylight
30 Sep - 19:36:28 10° NW 19:46:42 88° NE 19:56:43 10° SE visible
30 Sep - 21:42:24 10° WNW 21:50:44 30° SW 21:58:54 10° S visible
01 Oct - 10:51:23 10° S 10:58:58 27° SE 11:06:44 10° ENE daylight
01 Oct - 12:53:00 10° SW 13:02:49 87° SE 13:12:59 10° NE daylight
01 Oct - 14:59:00 10° W 15:08:34 48° NNW 15:18:19 10° ENE daylight
01 Oct - 17:05:48 10° WNW 17:15:26 46° N 17:25:04 10° E daylight
01 Oct - 19:11:14 10° NW 19:21:28 83° NE 19:31:31 10° ESE visible
01 Oct - 21:16:59 10° WNW 21:25:38 34° SW 21:34:08 10° S visible
02 Oct - 10:26:45 10° S 10:33:54 24° SE 10:41:13 10° ENE daylight
02 Oct - 12:27:52 10° SW 12:37:37 82° SE 12:47:44 10° ENE daylight
02 Oct - 14:33:38 10° W 14:43:13 50° NNW 14:53:01 10° ENE daylight
02 Oct - 16:40:30 10° WNW 16:50:05 45° N 16:59:41 10° E daylight
02 Oct - 18:46:00 10° NW 18:56:14 79° NNE 19:06:17 10° ESE daylight
02 Oct - 20:51:35 10° WNW 21:00:32 37° SW 21:09:19 10° SSE visible
03 Oct - 10:02:13 10° S 10:08:51 21° SE 10:15:37 10° E daylight
03 Oct - 12:02:45 10° SW 12:12:25 76° SE 12:22:29 10° ENE daylight
03 Oct - 14:08:19 10° W 14:17:54 51° NNW 14:27:45 10° ENE daylight
03 Oct - 16:15:12 10° WNW 16:24:43 44° N 16:34:18 10° ENE daylight
03 Oct - 18:20:46 10° NW 18:30:58 74° NNE 18:41:03 10° ESE daylight
03 Oct - 20:26:14 10° WNW 20:35:25 41° SW 20:44:27 10° SSE visible
